Location: Caltech
(34.1382°N, 118.1253°W)
Time: 20:29:26
(UTC-08:00)

Oscar 10/S400 - Visible Passes

Search period start: 10 February 2016 00:00
Search period end: 20 February 2016 00:00
Orbit: 3986 x 35461 km, 26.5° (Epoch: 09 February)

Date Brightness Start Highest point End Pass type
(mag) Time Alt. Az. Time Alt. Az. Time Alt. Az.
10 Feb ? 17:09:00 10° ESE 21:44:04 31° E 22:32:02 10° ENE visible
11 Feb ? 17:25:32 10° ESE 21:04:46 22° E 21:39:14 10° ENE visible
12 Feb ? 17:48:27 10° E 20:25:21 14° E 20:39:27 10° E visible
15 Feb ? 23:29:33 10° WSW 00:12:16 11° WSW 01:02:10 10° WSW visible
16 Feb ? 21:40:37 10° SW 23:42:45 18° WSW 06:59:25 10° SE visible
17 Feb ? 20:32:30 10° SW 23:18:07 25° SW 06:15:37 10° ESE visible
18 Feb ? 19:34:19 10° SSW 23:00:53 31° SW 05:31:43 10° ESE visible
